Portada
METAR-TAF:

METAR-TAF

Aeroports :

Nova York, Nova York, Estats Units d'Amèrica

latitud: 40-42-04N, longitud: 074-00-32W, altitud: 2 m

Observació

L'informe es va fer fa 36 minuts, a les 22:56 UTC
Vent 7 kt del Nord-Est amb ràfegues de 15 kt
Temperatura 10°C
Humitat 87%
Pressió 1005 hPa
Visibilitat: 16.1 km
Cel ennuvolat a una alçada de 1200 ft
Cel cobert a una alçada de 5500 ft
pluja

METAR: KJRB 152256Z AUTO 05007G15KT 10SM -RA BKN012 OVC055 10/08 A2967 RMK AO2 SLP047 P0001 T01000083 $

Hora: 19:32 (23:32 UTC)


TAF: manca

Observacions i pronòstics meteorològics de més de 4000 aeroports (METAR i TAF).

Les estacions disponibles són els punts grocs i vermells al mapa.

Posi el ratolí al punt desitjat per veure el nom de l'estació.

Feu clic per veure les observacions i els pronòstics meteorològics.

Per canviar el mapa: feu clic els botons verds amb una creu de color negre per apropar; al botó verd amb un guió per allunyar la imatge; o en les fletxes verdes per a mapes adjacents.


METAR-TAF: